Volver al catálogo

FENGYUN 1C DEB

ActivoPO
NORAD 33691·DEBRIS·🇨🇳 China

Lanzado May 10, 1999 desde Taiyuan Satellite Launch Center

Loading…

Próximos Pases (próximas 24 horas)

TLE

ActualizadoSource: Space-Track

Época: Sep 12, 2026, 10:57 UTC

1 33691U 99025DGC 26255.45652429  .00002991  00000-0  12527-2 0  9994
2 33691  99.1501 253.9018 0065975   3.2316 356.9275 14.25651981943863

Sigue FENGYUN 1C DEB en tiempo real con AllMySat

Download on the App Store